This is the latest recevied weather packets stored in our database for station/object KE0PRS. If no packets are shown the sender has not sent any weather packets the latest 10 day(s).
| Time | Temp. | Humidity | Pressure | Rain* | Wind** | Luminosity | Snow |
|---|---|---|---|---|---|---|---|
| 1777534538 | 5° C | 79% | 1020.1 hPa | 0 mm | - | 0 W/m² | - |
| 1777534236 | 5° C | 79% | 1020.3 hPa | 0 mm | - | 0 W/m² | - |
| 1777533933 | 5° C | 79% | 1020.3 hPa | 0 mm | - | 0 W/m² | - |
| 1777533630 | 5° C | 80% | 1020.1 hPa | 0 mm | - | 0 W/m² | - |
| 1777533326 | 4.44° C | 82% | 1020.2 hPa | 0 mm | - | 0 W/m² | - |
| 1777533022 | 4.44° C | 79% | 1020.2 hPa | 0 mm | - | 0 W/m² | - |
| 1777532720 | 5° C | 78% | 1020.3 hPa | 0 mm | - | 0 W/m² | - |
| 1777532416 | 5° C | 77% | 1020.2 hPa | 0 mm | - | 0 W/m² | - |
| 1777532113 | 5.56° C | 78% | 1020.4 hPa | 0 mm | - | 0 W/m² | - |
| 1777531809 | 5° C | 78% | 1020.6 hPa | 0 mm | - | 0 W/m² | - |
| 1777531504 | 5° C | 75% | 1020.4 hPa | 0 mm | - | 0 W/m² | - |
| 1777531203 | 5.56° C | 73% | 1020.4 hPa | 0 mm | - | 0 W/m² | - |
| 1777530900 | 6.11° C | 75% | 1020.2 hPa | 0 mm | - | 0 W/m² | - |
| 1777530597 | 6.11° C | 76% | 1020.1 hPa | 0 mm | - | 0 W/m² | - |
| 1777530295 | 6.11° C | 75% | 1020 hPa | 0 mm | - | 0 W/m² | - |
| 1777529990 | 6.11° C | 74% | 1020.2 hPa | 0 mm | - | 0 W/m² | - |
| 1777529688 | 6.11° C | 75% | 1019.9 hPa | 0 mm | - | 0 W/m² | - |
| 1777529384 | 6.11° C | 75% | 1019.9 hPa | 0 mm | - | 0 W/m² | - |
| 1777529081 | 6.11° C | 74% | 1020.1 hPa | 0 mm | - | 0 W/m² | - |
| 1777528776 | 6.67° C | 72% | 1020.1 hPa | 0 mm | - | 0 W/m² | - |
| 1777528474 | 6.67° C | 73% | 1020.1 hPa | 0 mm | - | 0 W/m² | - |
| 1777528172 | 6.67° C | 72% | 1020 hPa | 0 mm | - | 0 W/m² | - |
| 1777527869 | 7.22° C | 69% | 1020.1 hPa | 0 mm | - | 0 W/m² | - |
| 1777527564 | 7.78° C | 69% | 1019.7 hPa | 0 mm | - | 0 W/m² | - |
| 1777527260 | 7.78° C | 69% | 1019.7 hPa | 0 mm | - | 0 W/m² | - |
* Rain latest hour (hover to see other rain measurements)
** Current wind speed in m/s (hover to see current wind gust speed)